Location: Bern�tre
(50.1974°N, 2.0915°E)
Time: 03:09:04
(UTC+00:00)

CSL-04 Rocket - Pass Details

Date: 18 September 2020
Orbit: 806 x 860 km, 98.9° (Epoch: 24 October)

Event Time Altitude Azimuth Distance (km) Brightness Sun altitude
Rises 18:26:44 0° 157° (SSE) 3,359 6.5 -5.4°
Reaches altitude 10° 18:29:04 10° 156° (SSE) 2,437 5.8 -5.8°
Maximum altitude 18:34:28 77° 71° (ENE) 869 3.7 -6.7°
Drops below altitude 10° 18:39:59 10° 347° (NNW) 2,488 6.5 -7.5°
Sets 18:42:22 0° 346° (NNW) 3,435 7.2 -7.9°
